Regional Weather Roundup
Issued by NWS

Home | Current Version | Previous Version | Graphics & Text | Print | Product List | Glossary On
Versions: 1 2 3 4 5 6 7 8 9 10 11 12 13 14 15 16 17 18 19 20 21 22 23 24 25 26 27 28 29 30 31 32 33 34 35 36 37 38 39 40 41 42 43 44 45 46 47 48 49 50
000
ASUS43 KMPX 281801
RWRMN
WEATHER ROUNDUP FOR MINNESOTA
NATIONAL WEATHER SERVICE TWIN CITIES/CHANHASSEN MN
100 PM CDT FRI JUL 28 2017


NOTE: "FAIR" INDICATES FEW OR NO CLOUDS BELOW 12,000 FEET WITH NO
SIGNIFICANT WEATHER AND/OR OBSTRUCTIONS TO VISIBILITY. N/A MEANS
CURRENT SKY AND/OR WEATHER CONDITIONS ARE NOT AVAILABLE.

MNZ060>063-068>070-281900-
   Twin Cities Metro

CITY           SKY/WX    TMP DP  RH WIND       PRES   REMARKS
TWIN CITIES    MOSUNNY   82  60  47 E8G16     30.09F
6HR MIN TEMP:  67; 6HR MAX TEMP:  82;

ST PAUL        SUNNY     80  61  52 E9        30.09F
CRYSTAL        SUNNY     82  55  39 E10       30.08S
BLAINE         MOSUNNY   84  59  42 E10       30.09F
LAKEVILLE      SUNNY     79  64  61 E8        30.09F
EDEN PRAIRIE   MOSUNNY   82  59  45 E9        30.08F
6HR MIN TEMP:  67; 6HR MAX TEMP:  83;

SOUTH ST PAUL  SUNNY     80  58  47 E5        30.09F
LAKE ELMO      FAIR      81  63  54 E8        30.11S
$$
MNZ001>005-007-008-013>017-022>024-027-028-281900-
   Northwest Minnesota

CITY           SKY/WX    TMP DP  RH WIND       PRES   REMARKS
BEMIDJI        SUNNY     81  56  43 CALM      30.11F
HALLOCK        SUNNY     82  61  47 SW6       30.06F
ROSEAU         SUNNY     82  66  57 SW7       30.08F
WARROAD        SUNNY     79  66  65 CALM      30.09F HAZE
CROOKSTON      SUNNY     81  61  50 CALM      30.08F
FOSSTON        SUNNY     81  66  61 CALM      30.11S
DETROIT LAKES  SUNNY     81  55  41 S6        30.12S
MOORHEAD       SUNNY     82  59  44 CALM      30.08F
PARK RAPIDS    SUNNY     82  57  42 SE8       30.11F
MAHNOMEN       FAIR      80  60  49 CALM      30.10F
$$
MNZ006-009>011-018-025>026-281900-
   North Central Minnesota

CITY           SKY/WX    TMP DP  RH WIND       PRES   REMARKS
BAUDETTE       MOSUNNY   83  59  44 VRB3      30.09F
FLAG ISLAND    SUNNY     79  66  65 S8        30.08S
INTL FALLS     SUNNY     80  57  45 CALM      30.10F
6HR MIN TEMP:  55; 6HR MAX TEMP:  82;

WASKISH        SUNNY     81  61  50 W6        30.11F
BIG FORK       SUNNY     81  59  47 CALM      30.12F
LONGVILLE      MOSUNNY   81  63  54 CALM      30.12F
GRAND RAPIDS   SUNNY     77  61  57 VRB3      30.15S
CRANE LAKE     SUNNY     81  55  41 NE3       30.12F
ORR            SUNNY     81  48  32 CALM      30.10S
COOK             N/A     79  55  44 CALM      30.13S
WALKER         FAIR      78  62  57 SE5       30.12S
$$
MNZ012-019>021-037-281900-
   Northeast Minnesota

CITY           SKY/WX    TMP DP  RH WIND       PRES   REMARKS
DULUTH         MOSUNNY   75  57  53 S6        30.14S
6HR MIN TEMP:  57; 6HR MAX TEMP:  75;

ELY            PTSUNNY   77  52  41 W5        30.12F
HIBBING        SUNNY     77  55  46 CALM      30.13S
EVELETH        SUNNY     78  44  29 W3        30.14S
DULUTH HARBOR  SUNNY     72  63  73 NE7       30.13S
TWO HARBORS    SUNNY     79  63  57 S6        30.12S
SILVER BAY     SUNNY     77  59  53 SE7       30.11F
GRAND MARAIS     N/A     67  59  75 SW6       30.12F
G MARAIS ARPRT SUNNY     73  54  49 SE8       30.16S
$$
MNZ029>031-032-039>041-046>048-054>057-064-281900-
   West Central Minnesota

CITY           SKY/WX    TMP DP  RH WIND       PRES   REMARKS
FERGUS FALLS   SUNNY     81  63  54 S6        30.09S
WHEATON        MOSUNNY   79  61  53 CALM      30.10S
MORRIS         SUNNY     84  59  42 SE7       30.09S
ALEXANDRIA     SUNNY     81  60  48 CALM      30.12F
ELBOW LAKE     FAIR      80  62  54 CALM      30.11S
WADENA         MOSUNNY   81  61  50 SE6       30.11S
GLENWOOD       SUNNY     82  59  44 SE8       30.12S
APPLETON       MOSUNNY   81  61  50 S6        30.09S
BENSON         PTSUNNY   81  61  50 SE3       30.11S
ORTONVILLE     SUNNY    N/A N/A N/A MISG        N/A
MADISON        MOSUNNY   84  63  48 SE5       30.09F
WILLMAR        FAIR      81  63  54 SE5       30.12R
$$
MNZ033>034-036-042>043-049>051-058-059-281900-
   Central Minnesota

CITY           SKY/WX    TMP DP  RH WIND       PRES   REMARKS
ST CLOUD       MOSUNNY   80  59  48 VRB7      30.10F
6HR MIN TEMP:  60; 6HR MAX TEMP:  82;

SAUK CENTRE    MOCLDY    79  61  55 S5        30.11S HAZE
PAYNESVILLE    MOSUNNY   80  58  46 SE3       30.11S
AITKIN         SUNNY     79  61  53 CALM      30.11S
PINE RIVER     SUNNY     79  64  61 SE6       30.15S
BRAINERD       SUNNY     80  59  48 E7        30.12S
STAPLES        MOSUNNY   79  59  50 SE5       30.11S
LONG PRAIRIE   FAIR      77  61  57 E5        30.12S
LITTLE FALLS   MOSUNNY   77  55  47 E5        30.12R
LITCHFIELD     SUNNY     82  59  44 CALM      30.10S
BUFFALO        SUNNY     82  56  42 E7        30.11S
MAPLE LAKE     SUNNY     83  60  45 E8        30.11S
HUTCHINSON     SUNNY     81  63  54 E6        30.11S
$$
MNZ037-044-045-052-053-281900-
   East Central Minnesota

CITY           SKY/WX    TMP DP  RH WIND       PRES   REMARKS
PRINCETON      MOSUNNY   82  57  42 SE5       30.10F
MORA           SUNNY     77  55  47 CALM      30.13F
CAMBRIDGE      SUNNY     82  61  47 SE7       30.09S
RUSH CITY      SUNNY     80  59  48 NE3       30.11S
MOOSE LAKE     SUNNY     77  57  50 NE5       30.11S
HINCKLEY       FAIR      79  61  53 CALM      30.12S
CLOQUET        SUNNY     75  54  46 CALM      30.14S
MCGREGOR       SUNNY     79  59  50 E6        30.13S
$$
MNZ071>073-080-081-089-090-097-098-281900-
   Southwest Minnesota

CITY           SKY/WX    TMP DP  RH WIND       PRES   REMARKS
MONTEVIDEO     MOSUNNY   84  61  45 S3        30.10F
CANBY          MOSUNNY   81  62  51 CALM      30.11F
MARSHALL       PTSUNNY   80  61  52 S8        30.10F
REDWOOD FALLS  MOSUNNY   82  59  45 NE7       30.09S
OLIVIA         PTSUNNY   79  61  53 S3        30.10S
PIPESTONE      CLOUDY    77  63  61 SW5       30.12S
WINDOM         CLOUDY    81  55  41 E6        30.11S
WORTHINGTON    PTSUNNY   78  59  51 VRB6      30.12F
JACKSON        PTSUNNY   79  61  53 CALM      30.11F
TRACY          MOSUNNY   80  63  56 SE5       30.11S
SLAYTON        HVY RAIN  78  57  47 SE3       30.13S
$$
MNZ065>067-074>077-082>085-091>093-281900-
   South Central Minnesota

CITY           SKY/WX    TMP DP  RH WIND       PRES   REMARKS
MANKATO        MOSUNNY   79  61  53 E8        30.10S
NEW ULM        MOSUNNY   79  55  44 E3        30.10R
ST JAMES       MOSUNNY   79  63  57 E6        30.10S
FAIRMONT       MOSUNNY   79  63  57 E5        30.10S
GLENCOE        SUNNY     82  64  55 E9        30.09S
FARIBAULT      MOSUNNY   79  64  61 NE8       30.09F
OWATONNA       MOSUNNY   81  64  57 NE9       30.09S
WASECA         MOSUNNY   77  61  57 NE8       30.10S
ALBERT LEA     SUNNY     81  63  54 E9        30.08F
$$
MNZ078>079-086>088-094>096-281900-
   Southeast Minnesota

CITY           SKY/WX    TMP DP  RH WIND       PRES   REMARKS
ROCHESTER      MOSUNNY   78  65  63 NE13      30.09F
6HR MIN TEMP:  63; 6HR MAX TEMP:  78;

RED WING       SUNNY     81  55  41 E7        30.08F
STANTON        SUNNY     80  62  53 E9        30.08F
DODGE CENTER   MOSUNNY   79  63  57 E8        30.10S
WINONA         SUNNY     79  61  53 NE6       30.08F
AUSTIN         SUNNY     81  61  50 NE9       30.08S
PRESTON        MOSUNNY   76  63  64 NE8       30.09F
$$
ABBREVIATIONS USED IN REMARKS
   TC - TEMPERATURES IN CELSIUS
  WCI - WIND CHILL INDEX
   HX - HEAT INDEX
  VSB - VISIBILITY
$$



USA.gov is the U.S. government's official web portal to all federal, state and local government web resources and services.